Year,Month,Day,Hour,Minute,Value (Times are PST for temperature in C)
2021,04,18,00,00,10.80
2021,04,18,00,01,10.80
2021,04,18,00,02,10.80
2021,04,18,00,03,10.80
2021,04,18,00,04,10.80
2021,04,18,00,05,10.80
2021,04,18,00,06,10.80
2021,04,18,00,07,10.80
2021,04,18,00,08,10.80
2021,04,18,00,09,10.70
2021,04,18,00,10,10.70
2021,04,18,00,11,10.70
2021,04,18,00,12,10.70
2021,04,18,00,13,10.70
2021,04,18,00,14,10.70
2021,04,18,00,15,10.70
2021,04,18,00,16,10.70
2021,04,18,00,17,10.60
2021,04,18,00,18,10.60
2021,04,18,00,19,10.60
2021,04,18,00,20,10.60
2021,04,18,00,21,10.60
2021,04,18,00,22,10.60
2021,04,18,00,23,10.60
2021,04,18,00,24,10.60
2021,04,18,00,25,10.60
2021,04,18,00,26,10.60
2021,04,18,00,27,10.50
2021,04,18,00,28,10.50
2021,04,18,00,29,10.50
2021,04,18,00,30,10.40
2021,04,18,00,31,10.40
2021,04,18,00,32,10.40
2021,04,18,00,33,10.40
2021,04,18,00,34,10.40
2021,04,18,00,35,10.40
2021,04,18,00,36,10.30
2021,04,18,00,37,10.30
2021,04,18,00,38,10.30
2021,04,18,00,39,10.30
2021,04,18,00,40,10.30
2021,04,18,00,41,10.30
2021,04,18,00,42,10.30
2021,04,18,00,43,10.30
2021,04,18,00,44,10.20
2021,04,18,00,45,10.20
2021,04,18,00,46,10.20
2021,04,18,00,47,10.20
2021,04,18,00,48,10.20
2021,04,18,00,49,10.20
2021,04,18,00,50,10.20
2021,04,18,00,51,10.20
2021,04,18,00,52,10.20
2021,04,18,00,53,10.20
2021,04,18,00,54,10.20
2021,04,18,00,55,10.20
2021,04,18,00,56,10.20
2021,04,18,00,57,10.20
2021,04,18,00,58,10.10
2021,04,18,00,59,10.10
2021,04,18,01,00,10.10
2021,04,18,01,01,10.10
2021,04,18,01,02,10.10
2021,04,18,01,03,10.10
2021,04,18,01,04,10.10
2021,04,18,01,05,10.10
2021,04,18,01,06,10.10
2021,04,18,01,07,10.10
2021,04,18,01,08,10.10
2021,04,18,01,09,10.10
2021,04,18,01,10,10.00
2021,04,18,01,11,10.00
2021,04,18,01,12,10.00
2021,04,18,01,13,10.00
2021,04,18,01,14,10.00
2021,04,18,01,15,10.10
2021,04,18,01,16,10.00
2021,04,18,01,17,10.00
2021,04,18,01,18,10.00
2021,04,18,01,19,10.00
2021,04,18,01,20,10.00
2021,04,18,01,21,10.00
2021,04,18,01,22,10.00
2021,04,18,01,23,9.90
2021,04,18,01,24,9.90
2021,04,18,01,25,9.90
2021,04,18,01,26,9.90
2021,04,18,01,27,9.90
2021,04,18,01,28,9.90
2021,04,18,01,29,9.90
2021,04,18,01,30,9.90
2021,04,18,01,31,9.90
2021,04,18,01,32,9.90
2021,04,18,01,33,9.90
2021,04,18,01,34,9.90
2021,04,18,01,35,9.90
2021,04,18,01,36,9.90
2021,04,18,01,37,9.90
2021,04,18,01,38,9.90
2021,04,18,01,39,9.90
2021,04,18,01,40,9.90
2021,04,18,01,41,9.90
2021,04,18,01,42,9.90
2021,04,18,01,43,9.90
2021,04,18,01,44,9.80
2021,04,18,01,45,9.80
2021,04,18,01,46,9.80
2021,04,18,01,47,9.80
2021,04,18,01,48,9.80
2021,04,18,01,49,9.90
2021,04,18,01,50,9.80
2021,04,18,01,51,9.80
2021,04,18,01,52,9.80
2021,04,18,01,53,9.80
2021,04,18,01,54,9.80
2021,04,18,01,55,9.80
2021,04,18,01,56,9.80
2021,04,18,01,57,9.70
2021,04,18,01,58,9.70
2021,04,18,01,59,9.70
2021,04,18,02,00,9.70
2021,04,18,02,01,9.70
2021,04,18,02,02,9.70
2021,04,18,02,03,9.70
2021,04,18,02,04,9.70
2021,04,18,02,05,9.70
2021,04,18,02,06,9.70
2021,04,18,02,07,9.70
2021,04,18,02,08,9.70
2021,04,18,02,09,9.70
2021,04,18,02,10,9.70
2021,04,18,02,11,9.70
2021,04,18,02,12,9.60
2021,04,18,02,13,9.70
2021,04,18,02,14,9.60
2021,04,18,02,15,9.60
2021,04,18,02,16,9.60
2021,04,18,02,17,9.60
2021,04,18,02,18,9.60
2021,04,18,02,19,9.60
2021,04,18,02,20,9.60
2021,04,18,02,21,9.60
2021,04,18,02,22,9.60
2021,04,18,02,23,9.60
2021,04,18,02,24,9.60
2021,04,18,02,25,9.60
2021,04,18,02,26,9.60
2021,04,18,02,27,9.60
2021,04,18,02,28,9.60
2021,04,18,02,29,9.60
2021,04,18,02,30,9.70
2021,04,18,02,31,9.70
2021,04,18,02,32,9.70
2021,04,18,02,33,9.70
2021,04,18,02,34,9.70
2021,04,18,02,35,9.60
2021,04,18,02,36,9.60
2021,04,18,02,37,9.60
2021,04,18,02,38,9.60
2021,04,18,02,39,9.60
2021,04,18,02,40,9.60
2021,04,18,02,41,9.50
2021,04,18,02,42,9.50
2021,04,18,02,43,9.50
2021,04,18,02,44,9.40
2021,04,18,02,45,9.40
2021,04,18,02,46,9.40
2021,04,18,02,47,9.40
2021,04,18,02,48,9.40
2021,04,18,02,49,9.40
2021,04,18,02,50,9.40
2021,04,18,02,51,9.40
2021,04,18,02,52,9.40
2021,04,18,02,53,9.40
2021,04,18,02,54,9.40
2021,04,18,02,55,9.40
2021,04,18,02,56,9.40
2021,04,18,02,57,9.40
2021,04,18,02,58,9.40
2021,04,18,02,59,9.40
2021,04,18,03,00,9.40
2021,04,18,03,01,9.40
2021,04,18,03,02,9.40
2021,04,18,03,03,9.40
2021,04,18,03,04,9.40
2021,04,18,03,05,9.40
2021,04,18,03,06,9.30
2021,04,18,03,07,9.30
2021,04,18,03,08,9.30
2021,04,18,03,09,9.30
2021,04,18,03,10,9.30
2021,04,18,03,11,9.30
2021,04,18,03,12,9.30
2021,04,18,03,13,9.30
2021,04,18,03,14,9.30
2021,04,18,03,15,9.30
2021,04,18,03,16,9.30
2021,04,18,03,17,9.30
2021,04,18,03,18,9.30
2021,04,18,03,19,9.30
2021,04,18,03,20,9.30
2021,04,18,03,21,9.20
2021,04,18,03,22,9.20
2021,04,18,03,23,9.20
2021,04,18,03,24,9.20
2021,04,18,03,25,9.20
2021,04,18,03,26,9.20
2021,04,18,03,27,9.20
2021,04,18,03,28,9.20
2021,04,18,03,29,9.20
2021,04,18,03,30,9.20
2021,04,18,03,31,9.20
2021,04,18,03,32,9.20
2021,04,18,03,33,9.20
2021,04,18,03,34,9.20
2021,04,18,03,35,9.20
2021,04,18,03,36,9.10
2021,04,18,03,37,9.10
2021,04,18,03,38,9.10
2021,04,18,03,39,9.10
2021,04,18,03,40,9.10
2021,04,18,03,41,9.10
2021,04,18,03,42,9.10
2021,04,18,03,43,9.10
2021,04,18,03,44,9.10
2021,04,18,03,45,9.10
2021,04,18,03,46,9.10
2021,04,18,03,47,9.10
2021,04,18,03,48,9.10
2021,04,18,03,49,9.00
2021,04,18,03,50,9.00
2021,04,18,03,51,9.00
2021,04,18,03,52,9.00
2021,04,18,03,53,8.90
2021,04,18,03,54,9.00
2021,04,18,03,55,8.90
2021,04,18,03,56,8.90
2021,04,18,03,57,8.90
2021,04,18,03,58,8.90
2021,04,18,03,59,8.90
2021,04,18,04,00,8.90
2021,04,18,04,01,8.90
2021,04,18,04,02,8.90
2021,04,18,04,03,8.90
2021,04,18,04,04,8.90
2021,04,18,04,05,8.90
2021,04,18,04,06,8.90
2021,04,18,04,07,8.90
2021,04,18,04,08,8.90
2021,04,18,04,09,8.90
2021,04,18,04,10,8.90
2021,04,18,04,11,8.90
2021,04,18,04,12,8.90
2021,04,18,04,13,8.90
2021,04,18,04,14,8.90
2021,04,18,04,15,9.00
2021,04,18,04,16,9.00
2021,04,18,04,17,9.00
2021,04,18,04,18,8.90
2021,04,18,04,19,9.00
2021,04,18,04,20,9.00
2021,04,18,04,21,8.90
2021,04,18,04,22,8.90
2021,04,18,04,23,8.90
2021,04,18,04,24,8.90
2021,04,18,04,25,8.90
2021,04,18,04,26,8.90
2021,04,18,04,27,8.80
2021,04,18,04,28,8.80
2021,04,18,04,29,8.80
2021,04,18,04,30,8.80
2021,04,18,04,31,8.80
2021,04,18,04,32,8.80
2021,04,18,04,33,8.80
2021,04,18,04,34,8.80
2021,04,18,04,35,8.80
2021,04,18,04,36,8.80
2021,04,18,04,37,8.80
2021,04,18,04,38,8.80
2021,04,18,04,39,8.80
2021,04,18,04,40,8.80
2021,04,18,04,41,8.80
2021,04,18,04,42,8.80
2021,04,18,04,43,8.70
2021,04,18,04,44,8.70
2021,04,18,04,45,8.70
2021,04,18,04,46,8.70
2021,04,18,04,47,8.70
2021,04,18,04,48,8.70
2021,04,18,04,49,8.70
2021,04,18,04,50,8.70
2021,04,18,04,51,8.60
2021,04,18,04,52,8.70
2021,04,18,04,53,8.70
2021,04,18,04,54,8.60
2021,04,18,04,55,8.60
2021,04,18,04,56,8.60
2021,04,18,04,57,8.60
2021,04,18,04,58,8.60
2021,04,18,04,59,8.60
2021,04,18,05,00,8.60
2021,04,18,05,01,8.60
2021,04,18,05,02,8.60
2021,04,18,05,03,8.60
2021,04,18,05,04,8.60
2021,04,18,05,05,8.60
2021,04,18,05,06,8.60
2021,04,18,05,07,8.70
2021,04,18,05,08,8.60
2021,04,18,05,09,8.60
2021,04,18,05,10,8.60
2021,04,18,05,11,8.60
2021,04,18,05,12,8.60
2021,04,18,05,13,8.60
2021,04,18,05,14,8.60
2021,04,18,05,15,8.50
2021,04,18,05,16,8.50
2021,04,18,05,17,8.50
2021,04,18,05,18,8.50
2021,04,18,05,19,8.50
2021,04,18,05,20,8.40
2021,04,18,05,21,8.40
2021,04,18,05,22,8.40
2021,04,18,05,23,8.40
2021,04,18,05,24,8.40
2021,04,18,05,25,8.40
2021,04,18,05,26,8.40
2021,04,18,05,27,8.40
2021,04,18,05,28,8.40
2021,04,18,05,29,8.50
2021,04,18,05,30,8.50
2021,04,18,05,31,8.50
2021,04,18,05,32,8.50
2021,04,18,05,33,8.50
2021,04,18,05,34,8.50
2021,04,18,05,35,8.40
2021,04,18,05,36,8.40
2021,04,18,05,37,8.40
2021,04,18,05,38,8.40
2021,04,18,05,39,8.40
2021,04,18,05,40,8.40
2021,04,18,05,41,8.40
2021,04,18,05,42,8.30
2021,04,18,05,43,8.30
2021,04,18,05,44,8.30
2021,04,18,05,45,8.30
2021,04,18,05,46,8.30
2021,04,18,05,47,8.30
2021,04,18,05,48,8.30
2021,04,18,05,49,8.40
2021,04,18,05,50,8.40
2021,04,18,05,51,8.30
2021,04,18,05,52,8.40
2021,04,18,05,53,8.30
2021,04,18,05,54,8.30
2021,04,18,05,55,8.30
2021,04,18,05,56,8.30
2021,04,18,05,57,8.30
2021,04,18,05,58,8.30
2021,04,18,05,59,8.30
2021,04,18,06,00,8.30
2021,04,18,06,01,8.30
2021,04,18,06,02,8.30
2021,04,18,06,03,8.30
2021,04,18,06,04,8.30
2021,04,18,06,05,8.30
2021,04,18,06,06,8.30
2021,04,18,06,07,8.30
2021,04,18,06,08,8.30
2021,04,18,06,09,8.30
2021,04,18,06,10,8.30
2021,04,18,06,11,8.30
2021,04,18,06,12,8.30
2021,04,18,06,13,8.30
2021,04,18,06,14,8.30
2021,04,18,06,15,8.30
2021,04,18,06,16,8.30
2021,04,18,06,17,8.30
2021,04,18,06,18,8.30
2021,04,18,06,19,8.30
2021,04,18,06,20,8.30
2021,04,18,06,21,8.30
2021,04,18,06,22,8.20
2021,04,18,06,23,8.20
2021,04,18,06,24,8.20
2021,04,18,06,25,8.20
2021,04,18,06,26,8.20
2021,04,18,06,27,8.20
2021,04,18,06,28,8.20
2021,04,18,06,29,8.20
2021,04,18,06,30,8.20
2021,04,18,06,31,8.20
2021,04,18,06,32,8.20
2021,04,18,06,33,8.20
2021,04,18,06,34,8.20
2021,04,18,06,35,8.20
2021,04,18,06,36,8.20
2021,04,18,06,37,8.20
2021,04,18,06,38,8.20
2021,04,18,06,39,8.20
2021,04,18,06,40,8.20
2021,04,18,06,41,8.20
2021,04,18,06,42,8.20
2021,04,18,06,43,8.20
2021,04,18,06,44,8.20
2021,04,18,06,45,8.20
2021,04,18,06,46,8.10
2021,04,18,06,47,8.20
2021,04,18,06,48,8.20
2021,04,18,06,49,8.20
2021,04,18,06,50,8.20
2021,04,18,06,51,8.20
2021,04,18,06,52,8.10
2021,04,18,06,53,8.20
2021,04,18,06,54,8.20
2021,04,18,06,55,8.20
2021,04,18,06,56,8.20
2021,04,18,06,57,8.20
2021,04,18,06,58,8.20
2021,04,18,06,59,8.20
2021,04,18,07,00,8.10
2021,04,18,07,01,8.20
2021,04,18,07,02,8.20
2021,04,18,07,03,8.20
2021,04,18,07,04,8.20
2021,04,18,07,05,8.20
2021,04,18,07,06,8.20
2021,04,18,07,07,8.30
2021,04,18,07,08,8.30
2021,04,18,07,09,8.30
2021,04,18,07,10,8.30
2021,04,18,07,11,8.40
2021,04,18,07,12,8.40
2021,04,18,07,13,8.40
2021,04,18,07,14,8.40
2021,04,18,07,15,8.40
2021,04,18,07,16,8.40
2021,04,18,07,17,8.40
2021,04,18,07,18,8.40
2021,04,18,07,19,8.40
2021,04,18,07,20,8.40
2021,04,18,07,21,8.50
2021,04,18,07,22,8.50
2021,04,18,07,23,8.50
2021,04,18,07,24,8.50
2021,04,18,07,25,8.50
2021,04,18,07,26,8.60
2021,04,18,07,27,8.60
2021,04,18,07,28,8.60
2021,04,18,07,29,8.60
2021,04,18,07,30,8.60
2021,04,18,07,31,8.60
2021,04,18,07,32,8.60
2021,04,18,07,33,8.60
2021,04,18,07,34,8.60
2021,04,18,07,35,8.60
2021,04,18,07,36,8.70
2021,04,18,07,37,8.70
2021,04,18,07,38,8.70
2021,04,18,07,39,8.70
2021,04,18,07,40,8.80
2021,04,18,07,41,8.80
2021,04,18,07,42,8.80
2021,04,18,07,43,8.80
2021,04,18,07,44,8.90
2021,04,18,07,45,8.90
2021,04,18,07,46,9.00
2021,04,18,07,47,9.00
2021,04,18,07,48,9.10
2021,04,18,07,49,9.10
2021,04,18,07,50,9.20
2021,04,18,07,51,9.20
2021,04,18,07,52,9.30
2021,04,18,07,53,9.40
2021,04,18,07,54,9.40
2021,04,18,07,55,9.50
2021,04,18,07,56,9.60
2021,04,18,07,57,9.60
2021,04,18,07,58,9.70
2021,04,18,07,59,9.70
2021,04,18,08,00,9.80
2021,04,18,08,01,9.80
2021,04,18,08,02,10.00
2021,04,18,08,03,10.10
2021,04,18,08,04,10.30
2021,04,18,08,05,10.40
2021,04,18,08,06,10.50
2021,04,18,08,07,10.50
2021,04,18,08,08,10.60
2021,04,18,08,09,10.70
2021,04,18,08,10,10.70
2021,04,18,08,11,10.80
2021,04,18,08,12,10.80
2021,04,18,08,13,10.90
2021,04,18,08,14,10.90
2021,04,18,08,15,11.00
2021,04,18,08,16,11.10
2021,04,18,08,17,11.20
2021,04,18,08,18,11.30
2021,04,18,08,19,11.40
2021,04,18,08,20,11.60
2021,04,18,08,21,11.70
2021,04,18,08,22,11.80
2021,04,18,08,23,11.90
2021,04,18,08,24,12.10
2021,04,18,08,25,12.20
2021,04,18,08,26,12.30
2021,04,18,08,27,12.50
2021,04,18,08,28,12.60
2021,04,18,08,29,12.70
2021,04,18,08,30,12.80
2021,04,18,08,31,12.90
2021,04,18,08,32,13.00
2021,04,18,08,33,13.10
2021,04,18,08,34,13.30
2021,04,18,08,35,13.40
2021,04,18,08,36,13.50
2021,04,18,08,37,13.70
2021,04,18,08,38,13.70
2021,04,18,08,39,13.80
2021,04,18,08,40,13.90
2021,04,18,08,41,14.00
2021,04,18,08,42,14.10
2021,04,18,08,43,14.20
2021,04,18,08,44,14.30
2021,04,18,08,45,14.30
2021,04,18,08,46,14.40
2021,04,18,08,47,14.40
2021,04,18,08,48,14.40
2021,04,18,08,49,14.30
2021,04,18,08,50,14.20
2021,04,18,08,51,14.10
2021,04,18,08,52,14.00
2021,04,18,08,53,13.90
2021,04,18,08,54,13.80
2021,04,18,08,55,13.80
2021,04,18,08,56,13.80
2021,04,18,08,57,13.80
2021,04,18,08,58,13.80
2021,04,18,08,59,13.80
2021,04,18,09,00,13.90
2021,04,18,09,01,13.90
2021,04,18,09,02,14.00
2021,04,18,09,03,14.10
2021,04,18,09,04,14.20
2021,04,18,09,05,14.30
2021,04,18,09,06,14.40
2021,04,18,09,07,14.50
2021,04,18,09,08,14.50
2021,04,18,09,09,14.60
2021,04,18,09,10,14.60
2021,04,18,09,11,14.70
2021,04,18,09,12,14.70
2021,04,18,09,13,14.80
2021,04,18,09,14,14.80
2021,04,18,09,15,14.90
2021,04,18,09,16,14.90
2021,04,18,09,17,15.00
2021,04,18,09,18,15.10
2021,04,18,09,19,15.20
2021,04,18,09,20,15.30
2021,04,18,09,21,15.30
2021,04,18,09,22,15.40
2021,04,18,09,23,15.50
2021,04,18,09,24,15.50
2021,04,18,09,25,15.50
2021,04,18,09,26,15.60
2021,04,18,09,27,15.60
2021,04,18,09,28,15.70
2021,04,18,09,29,15.80
2021,04,18,09,30,15.80
2021,04,18,09,31,15.90
2021,04,18,09,32,16.10
2021,04,18,09,33,16.20
2021,04,18,09,34,16.40
2021,04,18,09,35,16.50
2021,04,18,09,36,16.70
2021,04,18,09,37,16.90
2021,04,18,09,38,17.10
2021,04,18,09,39,17.20
2021,04,18,09,40,17.20
2021,04,18,09,41,17.30
2021,04,18,09,42,17.30
2021,04,18,09,43,17.20
2021,04,18,09,44,17.20
2021,04,18,09,45,17.20
2021,04,18,09,46,17.20
2021,04,18,09,47,17.20
2021,04,18,09,48,17.20
2021,04,18,09,49,17.10
2021,04,18,09,50,17.10
2021,04,18,09,51,17.00
2021,04,18,09,52,17.00
2021,04,18,09,53,16.90
2021,04,18,09,54,16.80
2021,04,18,09,55,16.70
2021,04,18,09,56,16.50
2021,04,18,09,57,16.50
2021,04,18,09,58,16.40
2021,04,18,09,59,16.40
2021,04,18,10,00,16.40
2021,04,18,10,01,16.40
2021,04,18,10,02,16.50
2021,04,18,10,03,16.50
2021,04,18,10,04,16.60
2021,04,18,10,05,16.60
2021,04,18,10,06,16.70
2021,04,18,10,07,16.70
2021,04,18,10,08,16.80
2021,04,18,10,09,16.80
2021,04,18,10,10,16.90
2021,04,18,10,11,16.90
2021,04,18,10,12,16.90
2021,04,18,10,13,16.90
2021,04,18,10,14,16.90
2021,04,18,10,15,17.00
2021,04,18,10,16,17.00
2021,04,18,10,17,17.00
2021,04,18,10,18,17.10
2021,04,18,10,19,17.10
2021,04,18,10,20,17.10
2021,04,18,10,21,17.10
2021,04,18,10,22,17.10
2021,04,18,10,23,17.10
2021,04,18,10,24,17.10
2021,04,18,10,25,17.20
2021,04,18,10,26,17.20
2021,04,18,10,27,17.20
2021,04,18,10,28,17.20
2021,04,18,10,29,17.20
2021,04,18,10,30,17.20
2021,04,18,10,31,17.10
2021,04,18,10,32,17.20
2021,04,18,10,33,17.20
2021,04,18,10,34,17.30
2021,04,18,10,35,17.40
2021,04,18,10,36,17.50
2021,04,18,10,37,17.50
2021,04,18,10,38,17.60
2021,04,18,10,39,17.70
2021,04,18,10,40,17.80
2021,04,18,10,41,17.90
2021,04,18,10,42,18.10
2021,04,18,10,43,18.20
2021,04,18,10,44,18.30
2021,04,18,10,45,18.40
2021,04,18,10,46,18.40
2021,04,18,10,47,18.50
2021,04,18,10,48,18.60
2021,04,18,10,49,18.70
2021,04,18,10,50,18.80
2021,04,18,10,51,18.80
2021,04,18,10,52,18.80
2021,04,18,10,53,18.80
2021,04,18,10,54,18.80
2021,04,18,10,55,18.80
2021,04,18,10,56,18.80
2021,04,18,10,57,18.80
2021,04,18,10,58,18.90
2021,04,18,10,59,18.90
2021,04,18,11,00,18.90
2021,04,18,11,01,18.90
2021,04,18,11,02,19.00
2021,04,18,11,03,19.00
2021,04,18,11,04,19.00
2021,04,18,11,05,18.90
2021,04,18,11,06,18.90
2021,04,18,11,07,18.80
2021,04,18,11,08,18.80
2021,04,18,11,09,18.80
2021,04,18,11,10,18.90
2021,04,18,11,11,18.90
2021,04,18,11,12,18.90
2021,04,18,11,13,19.00
2021,04,18,11,14,19.00
2021,04,18,11,15,19.00
2021,04,18,11,16,19.10
2021,04,18,11,17,19.10
2021,04,18,11,18,19.20
2021,04,18,11,19,19.20
2021,04,18,11,20,19.20
2021,04,18,11,21,19.20
2021,04,18,11,22,19.20
2021,04,18,11,23,19.30
2021,04,18,11,24,19.30
2021,04,18,11,25,19.30
2021,04,18,11,26,19.30
2021,04,18,11,27,19.40
2021,04,18,11,28,19.50
2021,04,18,11,29,19.60
2021,04,18,11,30,19.70
2021,04,18,11,31,19.70
2021,04,18,11,32,19.70
2021,04,18,11,33,19.70
2021,04,18,11,34,19.70
2021,04,18,11,35,19.70
2021,04,18,11,36,19.70
2021,04,18,11,37,19.70
2021,04,18,11,38,19.80
2021,04,18,11,39,19.90
2021,04,18,11,40,19.90
2021,04,18,11,41,20.00
2021,04,18,11,42,20.10
2021,04,18,11,43,20.10
2021,04,18,11,44,20.10
2021,04,18,11,45,20.10
2021,04,18,11,46,20.10
2021,04,18,11,47,20.10
2021,04,18,11,48,20.10
2021,04,18,11,49,20.20
2021,04,18,11,50,20.20
2021,04,18,11,51,20.20
2021,04,18,11,52,20.20
2021,04,18,11,53,20.30
2021,04,18,11,54,20.30
2021,04,18,11,55,20.30
2021,04,18,11,56,20.40
2021,04,18,11,57,20.40
2021,04,18,11,58,20.40
2021,04,18,11,59,20.40
2021,04,18,12,00,20.40
2021,04,18,12,01,20.30
2021,04,18,12,02,20.30
2021,04,18,12,03,20.40
2021,04,18,12,04,20.50
2021,04,18,12,05,20.50
2021,04,18,12,06,20.60
2021,04,18,12,07,20.60
2021,04,18,12,08,20.60
2021,04,18,12,09,20.60
2021,04,18,12,10,20.60
2021,04,18,12,11,20.60
2021,04,18,12,12,20.60
2021,04,18,12,13,20.50
2021,04,18,12,14,20.50
2021,04,18,12,15,20.40
2021,04,18,12,16,20.40
2021,04,18,12,17,20.40
2021,04,18,12,18,20.50
2021,04,18,12,19,20.50
2021,04,18,12,20,20.50
2021,04,18,12,21,20.50
2021,04,18,12,22,20.50
2021,04,18,12,23,20.50
2021,04,18,12,24,20.50
2021,04,18,12,25,20.60
2021,04,18,12,26,20.50
2021,04,18,12,27,20.50
2021,04,18,12,28,20.50
2021,04,18,12,29,20.50
2021,04,18,12,30,20.40
2021,04,18,12,31,20.40
2021,04,18,12,32,20.30
2021,04,18,12,33,20.20
2021,04,18,12,34,20.10
2021,04,18,12,35,20.10
2021,04,18,12,36,20.10
2021,04,18,12,37,20.10
2021,04,18,12,38,20.20
2021,04,18,12,39,20.20
2021,04,18,12,40,20.30
2021,04,18,12,41,20.30
2021,04,18,12,42,20.40
2021,04,18,12,43,20.40
2021,04,18,12,44,20.50
2021,04,18,12,45,20.50
2021,04,18,12,46,20.60
2021,04,18,12,47,20.70
2021,04,18,12,48,20.80
2021,04,18,12,49,20.90
2021,04,18,12,50,21.10
2021,04,18,12,51,21.10
2021,04,18,12,52,21.20
2021,04,18,12,53,21.30
2021,04,18,12,54,21.30
2021,04,18,12,55,21.40
2021,04,18,12,56,21.40
2021,04,18,12,57,21.50
2021,04,18,12,58,21.50
2021,04,18,12,59,21.40
2021,04,18,13,00,21.40
2021,04,18,13,01,21.30
2021,04,18,13,02,21.30
2021,04,18,13,03,21.30
2021,04,18,13,04,21.30
2021,04,18,13,05,21.30
2021,04,18,13,06,21.30
2021,04,18,13,07,21.30
2021,04,18,13,08,21.40
2021,04,18,13,09,21.50
2021,04,18,13,10,21.50
2021,04,18,13,11,21.60
2021,04,18,13,12,21.60
2021,04,18,13,13,21.60
2021,04,18,13,14,21.60
2021,04,18,13,15,21.60
2021,04,18,13,16,21.40
2021,04,18,13,17,21.40
2021,04,18,13,18,21.50
2021,04,18,13,19,21.50
2021,04,18,13,20,21.50
2021,04,18,13,21,21.60
2021,04,18,13,22,21.60
2021,04,18,13,23,21.60
2021,04,18,13,24,21.70
2021,04,18,13,25,21.60
2021,04,18,13,26,21.60
2021,04,18,13,27,21.50
2021,04,18,13,28,21.40
2021,04,18,13,29,21.30
2021,04,18,13,30,21.30
2021,04,18,13,31,21.30
2021,04,18,13,32,21.30
2021,04,18,13,33,21.30
2021,04,18,13,34,21.30
2021,04,18,13,35,21.30
2021,04,18,13,36,21.30
2021,04,18,13,37,21.30
2021,04,18,13,38,21.40
2021,04,18,13,39,21.40
2021,04,18,13,40,21.50
2021,04,18,13,41,21.50
2021,04,18,13,42,21.50
2021,04,18,13,43,21.50
2021,04,18,13,44,21.50
2021,04,18,13,45,21.40
2021,04,18,13,46,21.40
2021,04,18,13,47,21.40
2021,04,18,13,48,21.40
2021,04,18,13,49,21.50
2021,04,18,13,50,21.50
2021,04,18,13,51,21.60
2021,04,18,13,52,21.60
2021,04,18,13,53,21.50
2021,04,18,13,54,21.50
2021,04,18,13,55,21.40
2021,04,18,13,56,21.30
2021,04,18,13,57,21.30
2021,04,18,13,58,21.40
2021,04,18,13,59,21.40
2021,04,18,14,00,21.50
2021,04,18,14,01,21.50
2021,04,18,14,02,21.70
2021,04,18,14,03,21.90
2021,04,18,14,04,22.00
2021,04,18,14,05,22.10
2021,04,18,14,06,22.20
2021,04,18,14,07,22.10
2021,04,18,14,08,22.10
2021,04,18,14,09,22.00
2021,04,18,14,10,22.00
2021,04,18,14,11,21.90
2021,04,18,14,12,21.90
2021,04,18,14,13,21.90
2021,04,18,14,14,21.90
2021,04,18,14,15,21.90
2021,04,18,14,16,21.90
2021,04,18,14,17,21.80
2021,04,18,14,18,21.70
2021,04,18,14,19,21.60
2021,04,18,14,20,21.70
2021,04,18,14,21,21.80
2021,04,18,14,22,21.80
2021,04,18,14,23,21.90
2021,04,18,14,24,22.00
2021,04,18,14,25,22.10
2021,04,18,14,26,22.20
2021,04,18,14,27,22.20
2021,04,18,14,28,22.20
2021,04,18,14,29,22.10
2021,04,18,14,30,22.10
2021,04,18,14,31,22.10
2021,04,18,14,32,22.10
2021,04,18,14,33,22.10
2021,04,18,14,34,22.10
2021,04,18,14,35,22.10
2021,04,18,14,36,22.10
2021,04,18,14,37,22.20
2021,04,18,14,38,22.20
2021,04,18,14,39,22.30
2021,04,18,14,40,22.40
2021,04,18,14,41,22.40
2021,04,18,14,42,22.40
2021,04,18,14,43,22.50
2021,04,18,14,44,22.60
2021,04,18,14,45,22.60
2021,04,18,14,46,22.60
2021,04,18,14,47,22.60
2021,04,18,14,48,22.50
2021,04,18,14,49,22.50
2021,04,18,14,50,22.40
2021,04,18,14,51,22.40
2021,04,18,14,52,22.40
2021,04,18,14,53,22.40
2021,04,18,14,54,22.40
2021,04,18,14,55,22.40
2021,04,18,14,56,22.40
2021,04,18,14,57,22.40
2021,04,18,14,58,22.30
2021,04,18,14,59,22.30
2021,04,18,15,00,22.30
2021,04,18,15,01,22.30
2021,04,18,15,02,22.30
2021,04,18,15,03,22.30
2021,04,18,15,04,22.30
2021,04,18,15,05,22.40
2021,04,18,15,06,22.40
2021,04,18,15,07,22.40
2021,04,18,15,08,22.40
2021,04,18,15,09,22.30
2021,04,18,15,10,22.30
2021,04,18,15,11,22.30
2021,04,18,15,12,22.30
2021,04,18,15,13,22.30
2021,04,18,15,14,22.40
2021,04,18,15,15,22.40
2021,04,18,15,16,22.30
2021,04,18,15,17,22.30
2021,04,18,15,18,22.30
2021,04,18,15,19,22.20
2021,04,18,15,20,22.20
2021,04,18,15,21,22.20
2021,04,18,15,22,22.20
2021,04,18,15,23,22.20
2021,04,18,15,24,22.20
2021,04,18,15,25,22.30
2021,04,18,15,26,22.30
2021,04,18,15,27,22.30
2021,04,18,15,28,22.30
2021,04,18,15,29,22.30
2021,04,18,15,30,22.30
2021,04,18,15,31,22.20
2021,04,18,15,32,22.20
2021,04,18,15,33,22.20
2021,04,18,15,34,22.30
2021,04,18,15,35,22.30
2021,04,18,15,36,22.20
2021,04,18,15,37,22.10
2021,04,18,15,38,22.10
2021,04,18,15,39,22.10
2021,04,18,15,40,22.20
2021,04,18,15,41,22.30
2021,04,18,15,42,22.40
2021,04,18,15,43,22.40
2021,04,18,15,44,22.30
2021,04,18,15,45,22.20
2021,04,18,15,46,22.20
2021,04,18,15,47,22.10
2021,04,18,15,48,22.10
2021,04,18,15,49,22.10
2021,04,18,15,50,22.10
2021,04,18,15,51,22.10
2021,04,18,15,52,22.10
2021,04,18,15,53,22.10
2021,04,18,15,54,22.10
2021,04,18,15,55,22.10
2021,04,18,15,56,22.10
2021,04,18,15,57,22.10
2021,04,18,15,58,22.10
2021,04,18,15,59,22.10
2021,04,18,16,00,22.10
2021,04,18,16,01,22.20
2021,04,18,16,02,22.40
2021,04,18,16,03,22.40
2021,04,18,16,04,22.50
2021,04,18,16,05,22.60
2021,04,18,16,06,22.50
2021,04,18,16,07,22.40
2021,04,18,16,08,22.30
2021,04,18,16,09,22.30
2021,04,18,16,10,22.30
2021,04,18,16,11,22.30
2021,04,18,16,12,22.30
2021,04,18,16,13,22.30
2021,04,18,16,14,22.30
2021,04,18,16,15,22.30
2021,04,18,16,16,22.40
2021,04,18,16,17,22.40
2021,04,18,16,18,22.50
2021,04,18,16,19,22.40
2021,04,18,16,20,22.40
2021,04,18,16,21,22.30
2021,04,18,16,22,22.30
2021,04,18,16,23,22.20
2021,04,18,16,24,22.20
2021,04,18,16,25,22.20
2021,04,18,16,26,22.30
2021,04,18,16,27,22.30
2021,04,18,16,28,22.30
2021,04,18,16,29,22.30
2021,04,18,16,30,22.20
2021,04,18,16,31,22.10
2021,04,18,16,32,22.10
2021,04,18,16,33,22.10
2021,04,18,16,34,22.20
2021,04,18,16,35,22.20
2021,04,18,16,36,22.20
2021,04,18,16,37,22.30
2021,04,18,16,38,22.40
2021,04,18,16,39,22.40
2021,04,18,16,40,22.40
2021,04,18,16,41,22.40
2021,04,18,16,42,22.40
2021,04,18,16,43,22.40
2021,04,18,16,44,22.40
2021,04,18,16,45,22.40
2021,04,18,16,46,22.20
2021,04,18,16,47,22.10
2021,04,18,16,48,22.00
2021,04,18,16,49,21.90
2021,04,18,16,50,21.80
2021,04,18,16,51,21.70
2021,04,18,16,52,21.60
2021,04,18,16,53,21.60
2021,04,18,16,54,21.60
2021,04,18,16,55,21.60
2021,04,18,16,56,21.70
2021,04,18,16,57,21.90
2021,04,18,16,58,22.00
2021,04,18,16,59,22.00
2021,04,18,17,00,22.10
2021,04,18,17,01,22.00
2021,04,18,17,02,22.00
2021,04,18,17,03,21.90
2021,04,18,17,04,21.90
2021,04,18,17,05,21.80
2021,04,18,17,06,21.80
2021,04,18,17,07,21.80
2021,04,18,17,08,21.90
2021,04,18,17,09,22.00
2021,04,18,17,10,22.10
2021,04,18,17,11,22.20
2021,04,18,17,12,22.20
2021,04,18,17,13,22.20
2021,04,18,17,14,22.20
2021,04,18,17,15,22.10
2021,04,18,17,16,22.00
2021,04,18,17,17,21.90
2021,04,18,17,18,21.80
2021,04,18,17,19,21.80
2021,04,18,17,20,21.80
2021,04,18,17,21,21.80
2021,04,18,17,22,21.70
2021,04,18,17,23,21.70
2021,04,18,17,24,21.70
2021,04,18,17,25,21.70
2021,04,18,17,26,21.60
2021,04,18,17,27,21.60
2021,04,18,17,28,21.60
2021,04,18,17,29,21.60
2021,04,18,17,30,21.60
2021,04,18,17,31,21.50
2021,04,18,17,32,21.50
2021,04,18,17,33,21.50
2021,04,18,17,34,21.50
2021,04,18,17,35,21.40
2021,04,18,17,36,21.50